Regional Weather Roundup
Issued by NWS

Home | Current Version | Previous Version | Text Only | Print | Product List | Glossary On
Versions: 1 2 3 4 5 6 7 8 9 10 11 12 13 14 15 16 17 18 19 20 21 22 23 24 25 26 27 28 29 30 31 32 33 34 35 36 37 38 39 40 41 42 43 44 45 46 47 48 49 50
000
ASUS43 KLMK 300810
RWRKY
KENTUCKY REGIONAL WEATHER ROUNDUP
NATIONAL WEATHER SERVICE LOUISVILLE KY
400 AM EDT SAT MAY 30 2015

NOTE "FAIR" INDICATES FEW OR NO CLOUDS BELOW 12,000 FEET
WITH NO SIGNIFICANT WEATHER AND/OR OBSTRUCTIONS TO VISIBILITY.

KYZ001>023-026-027-061>063-070>075-300900-
WESTERN AND SOUTH CENTRAL KENTUCKY

CITY           SKY/WX    TMP DP  RH WIND       PRES   REMARKS
PADUCAH        CLOUDY    73  68  84 S7        29.99F
HENDERSON      CLEAR     72  64  78 S5        30.00F
OWENSBORO      CLEAR     70  68  93 S6        30.03F
HOPKINSVILLE   PTCLDY    70  66  85 SE5       30.04
BOWLING GREEN  CLOUDY    71  66  84 S3        30.07S
GLASGOW        CLOUDY    70  63  79 CALM      30.08S
$$

KYZ024-025-028>034-038-045-046-053-300900-
NORTH CENTRAL KENTUCKY

CITY           SKY/WX    TMP DP  RH WIND       PRES   REMARKS
LOUISVILLE/SDF MOCLDY    74  66  76 SE8       30.04F
LOUISVILLE/LOU CLOUDY    72  67  84 S5        30.06S
FORT KNOX      MOCLDY    70  66  88 S6        30.04F
$$

KYZ035>037-039>044-047>052-055>060-089>105-300900-
NORTHEAST KENTUCKY

CITY           SKY/WX    TMP DP  RH WIND       PRES   REMARKS
LEXINGTON      MOCLDY    69  64  84 S7        30.09F
COVINGTON      PTCLDY    69  65  86 S7        30.06F
FRANKFORT      CLOUDY    70  64  81 S6        30.07S
$$

KYZ054-064>069-076>088-106>120-300900-
SOUTHEAST KENTUCKY

CITY           SKY/WX    TMP DP  RH WIND       PRES   REMARKS
JACKSON        PTCLDY    67  62  84 CALM      30.14S
LONDON         CLOUDY    68  62  81 CALM      30.13F
SOMERSET       PTCLDY    68  63  83 S3        30.13S
MIDDLESBORO    CLOUDY    65  64  98 CALM      30.15F
MONTICELLO     PTSUNNY   69  67  93 S3        30.14S
$$




USA.gov is the U.S. government's official web portal to all federal, state and local government web resources and services.